Time,TemperatureF,DewpointF,PressureIn,WindDirection,WindDirectionDegrees,WindSpeedMPH,WindSpeedGustMPH,Humidity,HourlyPrecipIn,Conditions,Clouds,dailyrainin,SoftwareType,DateUTC
2013-09-08 00:14:00,52.6,48.0,30.20,NW,318,0.0,-999.0,84,-99.99,,,0.00,weatherlink.com 1.10,2013-09-08 06:14:00,
2013-09-08 00:29:00,52.6,48.0,30.19,NW,318,0.0,-999.0,83,-99.99,,,0.00,weatherlink.com 1.10,2013-09-08 06:29:00,
2013-09-08 00:44:00,52.8,48.0,30.20,NW,318,0.0,-999.0,83,-99.99,,,0.00,weatherlink.com 1.10,2013-09-08 06:44:00,
2013-09-08 00:59:00,52.4,48.0,30.20,NW,306,0.0,-999.0,84,-99.99,,,0.00,weatherlink.com 1.10,2013-09-08 06:59:00,
2013-09-08 01:14:00,51.9,48.0,30.20,NW,306,0.0,-999.0,85,-99.99,,,0.00,weatherlink.com 1.10,2013-09-08 07:14:00,
2013-09-08 01:29:00,52.4,48.0,30.20,NW,306,0.0,-999.0,86,-99.99,,,0.00,weatherlink.com 1.10,2013-09-08 07:29:00,
2013-09-08 01:44:00,52.3,48.0,30.20,NW,306,0.0,-999.0,86,-99.99,,,0.00,weatherlink.com 1.10,2013-09-08 07:44:00,
2013-09-08 01:59:00,52.9,49.0,30.20,NW,306,0.0,-999.0,86,-99.99,,,0.00,weatherlink.com 1.10,2013-09-08 07:59:00,
2013-09-08 02:14:00,53.9,49.0,30.20,NW,309,0.0,-999.0,82,-99.99,,,0.00,weatherlink.com 1.10,2013-09-08 08:14:00,
2013-09-08 02:29:00,54.4,49.0,30.20,NW,306,2.0,-999.0,82,-99.99,,,0.00,weatherlink.com 1.10,2013-09-08 08:29:00,
2013-09-08 02:44:00,54.0,49.0,30.19,NW,306,0.0,-999.0,83,-99.99,,,0.00,weatherlink.com 1.10,2013-09-08 08:44:00,
2013-09-08 02:59:00,54.1,49.0,30.19,NW,306,0.0,-999.0,82,-99.99,,,0.00,weatherlink.com 1.10,2013-09-08 08:59:00,
2013-09-08 03:14:00,53.6,49.0,30.20,NW,306,0.0,-999.0,83,-99.99,,,0.00,weatherlink.com 1.10,2013-09-08 09:14:00,
2013-09-08 03:29:00,52.9,48.0,30.20,NW,306,0.0,-999.0,84,-99.99,,,0.00,weatherlink.com 1.10,2013-09-08 09:29:00,
2013-09-08 03:44:00,52.6,48.0,30.20,NW,306,0.0,-999.0,85,-99.99,,,0.00,weatherlink.com 1.10,2013-09-08 09:44:00,
2013-09-08 03:59:00,51.9,48.0,30.20,NW,306,0.0,-999.0,85,-99.99,,,0.00,weatherlink.com 1.10,2013-09-08 09:59:00,
2013-09-08 04:14:00,51.8,48.0,30.20,NW,306,0.0,-999.0,86,-99.99,,,0.00,weatherlink.com 1.10,2013-09-08 10:14:00,
2013-09-08 04:29:00,52.8,48.0,30.20,NW,306,0.0,-999.0,83,-99.99,,,0.00,weatherlink.com 1.10,2013-09-08 10:29:00,
2013-09-08 04:44:00,52.4,47.0,30.19,NW,306,0.0,-999.0,82,-99.99,,,0.00,weatherlink.com 1.10,2013-09-08 10:44:00,
2013-09-08 04:59:00,51.4,47.0,30.20,NW,306,0.0,-999.0,84,-99.99,,,0.00,weatherlink.com 1.10,2013-09-08 10:59:00,
2013-09-08 05:14:00,51.2,47.0,30.19,NW,306,0.0,-999.0,84,-99.99,,,0.00,weatherlink.com 1.10,2013-09-08 11:14:00,
2013-09-08 05:29:00,51.1,47.0,30.19,NW,306,0.0,-999.0,85,-99.99,,,0.00,weatherlink.com 1.10,2013-09-08 11:29:00,
2013-09-08 05:44:00,51.1,46.0,30.19,NW,306,0.0,-999.0,84,-99.99,,,0.00,weatherlink.com 1.10,2013-09-08 11:44:00,
2013-09-08 05:59:00,51.0,46.0,30.19,NW,306,0.0,-999.0,83,-99.99,,,0.00,weatherlink.com 1.10,2013-09-08 11:59:00,
2013-09-08 06:14:00,51.6,46.0,30.19,NW,305,0.0,-999.0,81,-99.99,,,0.00,weatherlink.com 1.10,2013-09-08 12:14:00,
2013-09-08 06:29:00,51.2,46.0,30.19,NW,305,0.0,-999.0,82,-99.99,,,0.00,weatherlink.com 1.10,2013-09-08 12:29:00,
2013-09-08 06:44:00,51.0,46.0,30.20,NW,305,0.0,-999.0,82,-99.99,,,0.00,weatherlink.com 1.10,2013-09-08 12:44:00,
2013-09-08 06:59:00,50.5,45.0,30.20,NW,305,0.0,-999.0,82,-99.99,,,0.00,weatherlink.com 1.10,2013-09-08 12:59:00,
2013-09-08 07:14:00,50.6,46.0,30.19,NW,305,2.0,-999.0,83,-99.99,,,0.00,weatherlink.com 1.10,2013-09-08 13:14:00,
2013-09-08 07:29:00,50.9,46.0,30.20,NW,305,0.0,-999.0,84,-99.99,,,0.00,weatherlink.com 1.10,2013-09-08 13:29:00,
2013-09-08 07:44:00,51.0,47.0,30.20,NW,305,0.0,-999.0,85,-99.99,,,0.00,weatherlink.com 1.10,2013-09-08 13:44:00,
2013-09-08 07:59:00,51.6,47.0,30.20,NW,305,0.0,-999.0,85,-99.99,,,0.00,weatherlink.com 1.10,2013-09-08 13:59:00,
2013-09-08 08:14:00,52.1,47.0,30.20,NW,305,0.0,-999.0,84,-99.99,,,0.00,weatherlink.com 1.10,2013-09-08 14:14:00,
2013-09-08 08:29:00,52.8,48.0,30.19,NW,305,0.0,-999.0,84,-99.99,,,0.00,weatherlink.com 1.10,2013-09-08 14:29:00,
2013-09-08 08:44:00,53.7,48.0,30.19,NW,305,0.0,-999.0,82,-99.99,,,0.00,weatherlink.com 1.10,2013-09-08 14:44:00,
2013-09-08 08:59:00,54.5,48.0,30.20,NW,305,0.0,-999.0,80,-99.99,,,0.00,weatherlink.com 1.10,2013-09-08 14:59:00,
2013-09-08 09:14:00,55.1,49.0,30.20,NW,305,0.0,-999.0,79,-99.99,,,0.00,weatherlink.com 1.10,2013-09-08 15:14:00,
2013-09-08 09:29:00,54.9,50.0,30.20,NW,305,0.0,-999.0,83,-99.99,,,0.00,weatherlink.com 1.10,2013-09-08 15:29:00,
2013-09-08 09:44:00,53.9,49.0,30.20,NW,305,0.0,-999.0,83,-99.99,,,0.00,weatherlink.com 1.10,2013-09-08 15:44:00,
2013-09-08 10:00:00,54.5,50.0,30.20,NW,305,0.0,-999.0,84,-99.99,,,0.00,weatherlink.com 1.10,2013-09-08 16:00:00,
2013-09-08 10:15:00,55.7,51.0,30.20,NW,305,0.0,-999.0,83,-99.99,,,0.00,weatherlink.com 1.10,2013-09-08 16:15:00,
2013-09-08 10:29:00,57.1,50.0,30.20,NW,305,0.0,-999.0,78,-99.99,,,0.00,weatherlink.com 1.10,2013-09-08 16:29:00,
2013-09-08 10:45:00,58.8,52.0,30.20,NW,305,0.0,-999.0,77,-99.99,,,0.00,weatherlink.com 1.10,2013-09-08 16:45:00,
2013-09-08 10:59:00,59.9,52.0,30.21,NW,305,0.0,-999.0,74,-99.99,,,0.00,weatherlink.com 1.10,2013-09-08 16:59:00,
2013-09-08 11:14:00,60.7,52.0,30.21,NW,305,0.0,-999.0,72,-99.99,,,0.00,weatherlink.com 1.10,2013-09-08 17:14:00,
2013-09-08 11:29:00,61.7,51.0,30.20,NW,305,0.0,-999.0,69,-99.99,,,0.00,weatherlink.com 1.10,2013-09-08 17:29:00,
2013-09-08 11:44:00,63.2,52.0,30.20,NW,305,0.0,-999.0,66,-99.99,,,0.00,weatherlink.com 1.10,2013-09-08 17:44:00,
2013-09-08 11:59:00,64.5,52.0,30.19,NW,305,0.0,-999.0,65,-99.99,,,0.00,weatherlink.com 1.10,2013-09-08 17:59:00,
2013-09-08 12:14:00,66.3,53.0,30.19,NW,305,0.0,-999.0,62,-99.99,,,0.00,weatherlink.com 1.10,2013-09-08 18:14:00,
2013-09-08 12:29:00,66.3,52.0,30.18,NW,305,1.0,-999.0,61,-99.99,,,0.00,weatherlink.com 1.10,2013-09-08 18:29:00,
2013-09-08 12:44:00,66.8,51.0,30.17,WNW,287,0.0,-999.0,58,-99.99,,,0.00,weatherlink.com 1.10,2013-09-08 18:44:00,
2013-09-08 12:59:00,66.9,52.0,30.17,West,279,2.0,-999.0,59,-99.99,,,0.00,weatherlink.com 1.10,2013-09-08 18:59:00,
2013-09-08 13:14:00,67.5,52.0,30.16,West,278,3.0,-999.0,57,-99.99,,,0.00,weatherlink.com 1.10,2013-09-08 19:14:00,
2013-09-08 13:29:00,68.1,53.0,30.16,West,278,3.0,-999.0,58,-99.99,,,0.00,weatherlink.com 1.10,2013-09-08 19:29:00,
2013-09-08 13:44:00,68.0,51.0,30.16,WSW,238,5.0,-999.0,54,-99.99,,,0.00,weatherlink.com 1.10,2013-09-08 19:44:00,
2013-09-08 13:59:00,69.2,52.0,30.15,WSW,257,8.0,-999.0,55,-99.99,,,0.00,weatherlink.com 1.10,2013-09-08 19:59:00,
2013-09-08 14:14:00,69.0,52.0,30.14,WSW,249,12.0,-999.0,55,-99.99,,,0.00,weatherlink.com 1.10,2013-09-08 20:14:00,
2013-09-08 14:29:00,69.9,52.0,30.14,WSW,253,6.0,-999.0,54,-99.99,,,0.00,weatherlink.com 1.10,2013-09-08 20:29:00,
2013-09-08 14:44:00,70.6,52.0,30.12,SW,215,0.0,-999.0,52,-99.99,,,0.00,weatherlink.com 1.10,2013-09-08 20:44:00,
2013-09-08 14:59:00,71.1,53.0,30.11,SSW,196,3.0,-999.0,53,-99.99,,,0.00,weatherlink.com 1.10,2013-09-08 20:59:00,
2013-09-08 15:14:00,71.0,51.0,30.10,WSW,246,7.0,-999.0,49,-99.99,,,0.00,weatherlink.com 1.10,2013-09-08 21:14:00,
2013-09-08 15:29:00,70.0,51.0,30.10,WSW,244,5.0,-999.0,52,-99.99,,,0.00,weatherlink.com 1.10,2013-09-08 21:29:00,
2013-09-08 15:44:00,68.7,52.0,30.10,WSW,242,9.0,-999.0,56,-99.99,,,0.00,weatherlink.com 1.10,2013-09-08 21:44:00,
2013-09-08 15:59:00,68.3,52.0,30.10,WSW,248,7.0,-999.0,57,-99.99,,,0.00,weatherlink.com 1.10,2013-09-08 21:59:00,
2013-09-08 16:14:00,66.9,47.0,30.10,SW,232,17.0,-999.0,49,-99.99,,,0.00,weatherlink.com 1.10,2013-09-08 22:14:00,
2013-09-08 16:29:00,66.6,50.0,30.10,WSW,242,11.0,-999.0,56,-99.99,,,0.00,weatherlink.com 1.10,2013-09-08 22:29:00,
2013-09-08 16:44:00,66.8,42.0,30.10,West,281,7.0,-999.0,40,-99.99,,,0.00,weatherlink.com 1.10,2013-09-08 22:44:00,
2013-09-08 16:59:00,66.4,45.0,30.09,WNW,292,9.0,-999.0,47,-99.99,,,0.00,weatherlink.com 1.10,2013-09-08 22:59:00,
2013-09-08 17:14:00,68.2,47.0,30.09,West,260,6.0,-999.0,47,-99.99,,,0.00,weatherlink.com 1.10,2013-09-08 23:14:00,
2013-09-08 17:29:00,67.5,46.0,30.09,South,187,1.0,-999.0,46,-99.99,,,0.00,weatherlink.com 1.10,2013-09-08 23:29:00,
2013-09-08 17:44:00,66.2,46.0,30.10,South,189,2.0,-999.0,49,-99.99,,,0.00,weatherlink.com 1.10,2013-09-08 23:44:00,
2013-09-08 17:59:00,65.4,47.0,30.10,SW,215,4.0,-999.0,52,-99.99,,,0.00,weatherlink.com 1.10,2013-09-08 23:59:00,
2013-09-08 18:14:00,64.9,47.0,30.09,South,174,0.0,-999.0,52,-99.99,,,0.00,weatherlink.com 1.10,2013-09-09 00:14:00,
2013-09-08 18:29:00,65.2,46.0,30.09,South,175,2.0,-999.0,51,-99.99,,,0.00,weatherlink.com 1.10,2013-09-09 00:29:00,
2013-09-08 18:44:00,64.3,47.0,30.09,South,190,4.0,-999.0,54,-99.99,,,0.00,weatherlink.com 1.10,2013-09-09 00:44:00,
2013-09-08 19:18:00,60.5,48.0,30.16,West,280,18.0,-999.0,64,-99.99,,,0.00,weatherlink.com 1.10,2013-09-09 01:18:00,
2013-09-08 19:29:00,54.4,48.0,30.18,North,350,11.0,-999.0,79,-99.99,,,0.16,weatherlink.com 1.10,2013-09-09 01:29:00,
2013-09-08 19:44:00,52.3,48.0,30.20,NE,51,7.0,-999.0,84,-99.99,,,0.18,weatherlink.com 1.10,2013-09-09 01:44:00,
2013-09-08 19:59:00,52.1,48.0,30.15,East,86,17.0,-999.0,85,-99.99,,,0.21,weatherlink.com 1.10,2013-09-09 01:59:00,
2013-09-08 20:14:00,53.3,47.0,30.12,ESE,119,14.0,-999.0,79,-99.99,,,0.21,weatherlink.com 1.10,2013-09-09 02:14:00,
2013-09-08 20:29:00,54.1,47.0,30.13,SE,124,5.0,-999.0,77,-99.99,,,0.21,weatherlink.com 1.10,2013-09-09 02:29:00,
2013-09-08 20:44:00,54.4,47.0,30.13,South,187,3.0,-999.0,75,-99.99,,,0.21,weatherlink.com 1.10,2013-09-09 02:44:00,
2013-09-08 20:59:00,53.3,48.0,30.13,SSW,198,10.0,-999.0,81,-99.99,,,0.21,weatherlink.com 1.10,2013-09-09 02:59:00,
2013-09-08 21:14:00,53.7,48.0,30.13,South,189,9.0,-999.0,80,-99.99,,,0.21,weatherlink.com 1.10,2013-09-09 03:14:00,
2013-09-08 21:29:00,53.4,48.0,30.13,South,191,2.0,-999.0,81,-99.99,,,0.21,weatherlink.com 1.10,2013-09-09 03:29:00,
2013-09-08 21:44:00,52.8,48.0,30.13,South,191,0.0,-999.0,83,-99.99,,,0.21,weatherlink.com 1.10,2013-09-09 03:44:00,
2013-09-08 21:59:00,53.1,48.0,30.13,SSW,192,2.0,-999.0,82,-99.99,,,0.21,weatherlink.com 1.10,2013-09-09 03:59:00,
2013-09-08 22:14:00,53.4,48.0,30.12,SSW,199,6.0,-999.0,81,-99.99,,,0.21,weatherlink.com 1.10,2013-09-09 04:14:00,
2013-09-08 22:29:00,53.0,47.0,30.12,SSW,202,3.0,-999.0,81,-99.99,,,0.21,weatherlink.com 1.10,2013-09-09 04:29:00,
2013-09-08 22:44:00,52.6,47.0,30.12,SSW,202,2.0,-999.0,82,-99.99,,,0.21,weatherlink.com 1.10,2013-09-09 04:44:00,
2013-09-08 22:59:00,52.8,47.0,30.12,SSW,194,4.0,-999.0,80,-99.99,,,0.21,weatherlink.com 1.10,2013-09-09 04:59:00,
2013-09-08 23:14:00,52.8,47.0,30.13,South,186,5.0,-999.0,80,-99.99,,,0.21,weatherlink.com 1.10,2013-09-09 05:14:00,
2013-09-08 23:29:00,52.8,47.0,30.13,South,182,4.0,-999.0,80,-99.99,,,0.21,weatherlink.com 1.10,2013-09-09 05:29:00,
2013-09-08 23:44:00,52.9,47.0,30.13,South,186,6.0,-999.0,79,-99.99,,,0.21,weatherlink.com 1.10,2013-09-09 05:44:00,
2013-09-08 23:59:00,52.7,47.0,30.12,South,187,5.0,-999.0,80,-99.99,,,0.21,weatherlink.com 1.10,2013-09-09 05:59:00,